Tracking 19847 objects as of 15-Sep-2019
HD Live streaming from Space Station
objects crossing your sky now

KIKU 1 (ETS 1)

Track KIKU 1 (ETS 1) now!
10-day predictions
KIKU 1 (ETS 1) is classified as:


NORAD ID: 8197
Int'l Code: 1975-082A
Perigee: 981.0 km
Apogee: 1,108.2 km
Inclination: 47.0 °
Period: 105.9 minutes
Semi major axis: 7415 km
RCS: 1.482 m2 (large)
Launch date: September 9, 1975
Source: Japan (JPN)
Launch site: TANEGASHIMA SPACE CENTER (TNSTA)
aabbcc
Your satellite tracking list
Your tracking list is empty




NASA's NSSDC Master Catalog

Two Line Element Set (TLE):
1  8197U 75082A   19257.87393669 -.00000128 +00000-0 -32461-5 0  9996
2  8197 046.9892 063.1033 0085778 180.9072 287.9393 13.59513785186703
Source of the keplerian elements: AFSPC